Погода в Кирсанове

Погода в Кирсанове : погода сейчас, прогноз погоды и архив. Всё, что Вы хотите узнать о погоде в Кирсанове!

Хотите узнать прогноз погоды в Кирсанове? Тогда Вам сюда: Погода в Кирсанове

Поиск расширенной информации на нашем сайте:

Другие новости

Новости СМИ2

Главная страница сайта

Новости сайта

03.07.2017

Напоминаем, что на нашем специализированном сайте Метеоцентр.Азия вы можете получить высокодетализированные автоматические прогнозы погоды по пунктам России, СНГ и мира в авиационном формате (включающие направление и скорость ветра, видимость, явления погоды, количество и форму облачности, нижнюю и верхнюю границу облачности).


Погода в Кирсанове - сегодня

Время (UTC), дата Ветер
(°,м/с) 
Видим.   Явления Облачность Т
(°С)
Тd
(°С)
f(%) Тe
(°С)
Pmin
(гПа)
dP
(гПа)
Po
(мм)
O2
(г/м3)
Тmin Tmax R s Состояние
почвы
12 20.10.17 280 (З) 10 км    6/6 600 м 
[Sc]
+8.6 -1.7 48 +9  1018.9  -0.3  749  293           
15 20.10.17 300 (СЗ) 10 км    6/6 600 м 
[Sc]
+4.7 -0.4 69 +6  1019.8  0.6  749  297    +9.1       
18 20.10.17 300 (СЗ) 10 км    9/9 600 м 
[Sc]
+4.6 -1.1 66 +5  1020.6  0.8  750  297           
21 20.10.17 330 (СЗ) 10 км    6/6 1000 м 
[Sc]
+3.5 -0.6 74 +3  1019.9  -0.9  749  298           
00 21.10.17 300 (СЗ) 10 км    6/6 1000 м 
[Sc]
+2.7 +0 82 +3  1019.9  749  299           
03 21.10.17 300 (СЗ) 10 км    ясно 
+0.1 -1.7 88 +1  1019.2  -1  741  299  +0         
06 21.10.17 тихо ()   10 км    1/0 средняя 
[Ac trans]
+3.6 +0.1 78 +4  1018.9  748  298  -1.3         
09 21.10.17 280 (З) 10 км    6/4 1000 м кучево-дожд., средняя 
[Cb calv|Ac trans]
+7.7 -1.2 53 +8  1017.8  -0.8  748  293           
12 21.10.17 300 (СЗ) 10 км    8/6 600 м кучево-дожд., средняя 
[Cb calv|Ac trans]
+7 -0.9 57 +7  1016.2  -1.5  747  293           
15 21.10.17 230 (ЮЗ) 10 км  {ливн. осадки}  8/0 средняя 
[Ac trans]
+3 +0.1 81 +2  1016.1  -0.4  746  297    +8.3  0.0     
18 21.10.17 тихо ()   10 км  {ливн. осадки}  10/10 1000 м 
[Sc]
+0.4 -0.7 92 1016.3  746  300           
21 21.10.17 320 (СЗ) 10 км    ясно 
-1.6 -2.7 92 -1  1015.8  -0.7  746  303           
00 22.10.17 330 (СЗ) 10 км    3/0 верхняя 
[Ci sp]
-2.3   1015.4  -0.4  746             
03 22.10.17 040 (СВ) 4000 м  дымка  10/10 1000 м 
[Sc]
-1.9 -2.7 94 -3  1015  -0.4  745  303  -2.6         
06 22.10.17 020 (С) 0500 м  туман  ?/?  
-0.8 -1.2 97 -2  1015.2  0.3  746  301           
09 22.10.17 350 (С) 10 км  {туман}  10/10 300 м 
[St]
+1.9 -0.3 85 1014.7  -0.3  745  298           
12 22.10.17 320 (СЗ) 10 км  {туман}  6/6 600 м кучево-дожд. 
[Cb calv]
+2.7 -2.8 67 +2  1014.7  0.1  745  298           
15 22.10.17 340 (С) 10 км  {ливн. осадки}  6/4 600 м кучево-дожд., средняя 
[Cb calv|Ac trans]
+0.1 -1.4 90 -1  1015.8  0.8  746  301    +3.8  0.0     
18 22.10.17 020 (С) 10 км  {ливн. осадки}  8/4 600 м кучево-дожд., средняя 
[Cb calv|Ac trans]
-1.1 -4.3 79 -3  1017.1  1.3  747  303           
21 22.10.17 310 (СЗ) 10 км    ясно 
-3.5 -5.3 87 -3  1018.5  748  306           
00 23.10.17 290 (З) 10 км    ясно 
-5 -6.7 88 -5  1018.9  0.4  748  308           
03 23.10.17 250 (З) 10 км    ясно 
-6.6 -7.8 91 -6  1019.8  0.7  749  310  -6.7    0.0     
06 23.10.17 240 (ЮЗ) 10 км    6/0 средняя 
[Ac trans]
-2.5 -5.4 80 -4  1020.1  0.6  749  305           
09 23.10.17 250 (З) 10 км    8/0 средняя 
[Ac trans]
+1.6 -4.6 63 1019.8  0.1  749  301           
12 23.10.17 260 (З) 10 км    6/3 1000 м средняя, верхняя 
[Cu med, cong|Ac trans|Ci sp]
+2.6 -5.6 55 +1  1019.8  749  300           
Время (UTC), дата Ветер
(°,м/с) 
Видим.   Явления Облачность Т
(°С)
Тd
(°С)
f(%) Тe
(°С)
Pmin
(гПа)
dP
(гПа)
Po
(мм)
O2
(г/м3)
Тmin Tmax R s Состояние
почвы

Для получения пояснительной информации подведите курсор к названию столбца.

ПОГОДА в Кирсанове - архив

Всё, что Вы хотите узнать о погоде в Кирсанове - удобно и подробно!

Выберите нужную дату (начиная с 1 января 2015* года) и нажмите кнопку "Найти".
Будут отображены архивные сводки погоды по пункту Кирсанов, начиная с указанной даты.


Отображать данные в формате CSV (для использования в таблицах Excel)


Внимание! Наш архив погоды предназначен исключительно для личного некоммерческого использования в познавательных целях. Если Вам необходимы официальные справки о состоянии погоды (для производственных, юридических, коммерческих и т.п. целей), обращайтесь в органы Росгидромета.

*Примечание: данная дата относится к архиву по метеостанциям СССР (Россия, СНГ, Балтия).
Архив по метеостанциям Зарубежной Европы и Азии (кроме Китая) хранится 10 дней, по другим регионам земного шара (Китай, Африка, Америка, Австралия, Океания) - 1 день.

Кирсанов - район местоположения метеостанции


Название, широта, долгота, высота метеостанции:
Кирсанов 52.7°ш. 42.7°д. 169 м над ур. моря [Российская Федерация]

Дополнительная информация

В oтличие oт бoльшинства пoгoдных сайтoв мы публикуем пoдрoбную метеoинфoрмацию в детальнoм прoфессиoнальнoм фoрмате.

Характеристики температуры и влажнoсти вoздуха измеряются на высoте 2 м в тени вдали oт зданий и деревьев.
Скoрoсть ветра измеряется на высoте 10 м (на урoвне рoста челoвека скoрoсть ветра ниже в 1.5-2 раза). Если метеoстанция нахoдится в гoрoде или в лесу, тo скoрoсть ветра занижена на 2-4 м/с пo сравнению с oткрытым местoм. Скoрoсть ветра над акватoриями крупных рек и oзёр, а также на вершинах хoлмoв на 2-5 м/с выше, чем в oбычных услoвиях.
Атмoсфернoе давление в разных тoчках местнoсти мoжет значительнo oтличаться oт давления на метеoстанции, в зависимoсти oт услoвий рельефа (при пoдъёме на 10 м давление пoнижается примернo на 1 мм рт.ст.).